Regional Weather Roundup
Issued by NWS Jackson, KY

Home | Current Version | Previous Version | Graphics & Text | Print | Product List | Glossary On
Versions: 1 2 3 4 5 6 7 8 9 10 11 12 13 14 15 16 17 18 19 20 21 22 23 24 25 26 27 28
000
ASUS43 KJKL 291810
RWRJKL

EAST KENTUCKY HOURLY WEATHER ROUNDUP
NATIONAL WEATHER SERVICE JACKSON KY
200 PM EDT SAT APR 29 2017

NOTE: "FAIR" INDICATES FEW OR NO CLOUDS BELOW 12,000 FEET WITH
NO SIGNIFICANT WEATHER AND/OR OBSTRUCTIONS TO VISIBILITY.

* THESE REPORTS ARE NOT UNDER NWS QUALITY CONTROL AND MAY NOT
  REPORT WEATHER SUCH AS PRECIPITATION AND FOG.

KYZ079-080-083-085-087-088-110-112-115-119-120-291900
...EASTERN KENTUCKY...

CITY           SKY/WX    TMP DP  RH WIND       PRES   REMARKS
JACKSON        CLOUDY    85  65  51 VRB3      30.11F
6HR MIN TEMP:  71; 6HR MAX TEMP:  86;

LONDON         CLOUDY    86  60  41 S9        30.08F
6HR MIN TEMP:  67; 6HR MAX TEMP:  87;

SOMERSET*      CLOUDY    82  64  54 E5        30.08F
MONTICELLO*    CLOUDY    88  66  48 W10G18    30.07F HX  90
6HR MIN TEMP:  71; 6HR MAX TEMP:  88;

WILLIAMSBURG*  CLOUDY    86  63  45 SW14G22   30.07F
MIDDLESBORO*   MOSUNNY   86  64  47 W9G17     30.10S
6HR MIN TEMP:  68; 6HR MAX TEMP:  87;

HARLAN APT*    CLOUDY    88  54  31 S5        30.11F
PIKE CO APT*     N/A     82  64  54 NW5       30.13S
BIG SANDY APT* CLOUDY    84  66  54 CALM      30.12F
6HR MIN TEMP:  71; 6HR MAX TEMP:  85;

MOREHEAD APT*  MOCLDY    79  66  65 NW7       30.13S
$$

KYZ035-036-041-042-044-050-067-078-099-291900
...CENTRAL KENTUCKY...

CITY           SKY/WX    TMP DP  RH WIND       PRES   REMARKS
MT STERLING*   CLOUDY    79  68  69 NE5       30.12S
FLEMING/MASON* CLOUDY    74  65  72 CALM      30.12F
DANVILLE*      CLOUDY    82  64  54 W3        30.09F
LEXINGTON      CLOUDY    79  65  62 NE7       30.09F
6HR MIN TEMP:  67; 6HR MAX TEMP:  80;

FRANKFORT      PTSUNNY   79  64  60 E5        30.06F
6HR MIN TEMP:  67; 6HR MAX TEMP:  79; 6HR PCP:  0.01;

LOUISVILLE     CLOUDY    78  64  61 E10       30.04F
6HR MIN TEMP:  66; 6HR MAX TEMP:  78; 6HR PCP:  0.04;

LEBANON*         N/A     82  64  54 S6        30.06F
GLASGOW*       MOSUNNY   83  67  58 N5        30.02F
BOWLING GREEN  MOSUNNY   84  67  56 S13       30.01F
6HR MIN TEMP:  75; 6HR MAX TEMP:  86;

$$

KYZ091>093-OHZ055-061-077-WVZ005-015-034-035-042-291900
...SOUTHERN OHIO/WEST VIRGINIA...

CITY           SKY/WX    TMP DP  RH WIND       PRES   REMARKS
COVINGTON      CLOUDY    73  65  75 SE10      30.06F
COLUMBUS       CLOUDY    65  63  93 SW9       30.10F
DAYTON         PTSUNNY   69  64  84 S8        30.10R
WILMINGTON     CLOUDY    70  64  81 SE6       30.09F
HUNTINGTON     CLOUDY    83  66  56 W8        30.10S
CHARLESTON     CLOUDY    84  63  49 W7        30.12S
PINEVILLE*     MOSUNNY   91  51  25 MISG      30.17F
BECKLEY        PTSUNNY   85  52  32 W10       30.17F
BLUEFIELD      CLOUDY    83  51  33 SW12      30.20F
LOGAN CO APT*    N/A     84  61  45 CALM      30.14S
$$

VAZ002-007-008-TNZ017-027-036-066-071-291900
...SOUTHWEST VIRGINIA/EAST TENNESSEE...

CITY           SKY/WX    TMP DP  RH WIND       PRES   REMARKS
WISE*          CLOUDY    82  55  39 SW9       30.20S
JONESVILLE*      N/A     90  59  35 S15G23    30.13F
ABINGDON*      CLOUDY    87  61  41 W7        30.16F
BRISTOL        PTSUNNY   87  66  49 VRB7      30.12F
MORRISTOWN*    CLEAR     86  66  51 VRB5G12   30.09F
SEVIERVILLE*   PTCLDY    86  66  51 NW6       30.07F
KNOXVILLE      PTSUNNY   87  64  46 SW18      30.07F
LAFOLLETTE*    CLEAR     86  66  51 S15G23    30.11F
OAK RIDGE      MOSUNNY   89  62  40 VRB6G22   30.09F
CROSSVILLE     MOSUNNY   81  64  56 S13G26    30.11F
NASHVILLE      CLOUDY    87  64  46 SW12G21   29.99F
$$

...KEY TO REMARKS...
VSB - VISIBILITY IN MILES
WCI - WIND CHILL INDEX
HX  - HEAT INDEX

$$




USA.gov is the U.S. government's official web portal to all federal, state and local government web resources and services.